Location: Campo Claro
(10.4907°N, 66.8285°W)
Time: 09:08:03
(UTC+00:00)

GPS 2-15 Rocket1 - Pass Details

Date: 08 December 2021
Orbit: 623 x 674 km, 19.8° (Epoch: 24 January)

Event Time Altitude Azimuth Distance (km) Brightness Sun altitude
Rises 23:13:52 0° 293° (WNW) 2,908 7.2 -16.5°
Reaches altitude 10° 23:16:17 10° 297° (WNW) 1,994 6.2 -17.0°
Maximum altitude 23:20:51 53° 15° (NNE) 761 3.2 -18.1°
Enters shadow 23:22:12 39° 66° (ENE) 935 3.4 -18.4°
